TimeEST,TemperatureF,Dew PointF,Humidity,Sea Level PressureIn,VisibilityMPH,Wind Direction,Wind SpeedMPH,Gust SpeedMPH,PrecipitationIn,Events,Conditions,WindDirDegrees,DateUTC
12:53 AM,70.0,66.0,87,29.96,10.0,SSW,11.5,-,N/A,,Mostly Cloudy,210,2012-12-21 05:53:00
1:53 AM,71.1,66.0,84,29.94,10.0,SSW,11.5,-,N/A,,Partly Cloudy,200,2012-12-21 06:53:00
2:53 AM,71.1,66.0,84,29.93,10.0,SSW,12.7,-,N/A,,Mostly Cloudy,210,2012-12-21 07:53:00
3:53 AM,72.0,66.0,81,29.93,10.0,SW,10.4,-,N/A,,Overcast,230,2012-12-21 08:53:00
4:24 AM,66.2,62.6,88,29.95,9.0,WNW,17.3,-,0.00,,Overcast,290,2012-12-21 09:24:00
4:29 AM,66.2,62.6,88,29.95,10.0,WNW,16.1,23.0,0.00,,Overcast,290,2012-12-21 09:29:00
4:40 AM,66.2,62.6,88,29.96,10.0,WNW,19.6,26.5,0.00,,Overcast,290,2012-12-21 09:40:00
4:53 AM,66.0,62.1,87,29.96,10.0,WNW,12.7,-,0.00,,Overcast,300,2012-12-21 09:53:00
5:07 AM,64.4,60.8,88,29.97,10.0,WNW,12.7,-,N/A,,Overcast,300,2012-12-21 10:07:00
5:25 AM,64.4,57.2,77,29.98,10.0,WNW,19.6,25.3,N/A,,Mostly Cloudy,300,2012-12-21 10:25:00
5:53 AM,62.1,50.0,65,30.00,10.0,WNW,15.0,24.2,N/A,,Overcast,290,2012-12-21 10:53:00
6:53 AM,59.0,50.0,72,30.04,10.0,WNW,11.5,-,N/A,,Clear,290,2012-12-21 11:53:00
7:53 AM,55.9,45.0,67,30.07,10.0,WNW,12.7,-,N/A,,Clear,300,2012-12-21 12:53:00
8:53 AM,55.0,39.0,55,30.11,10.0,NW,18.4,27.6,N/A,,Clear,310,2012-12-21 13:53:00
9:53 AM,55.9,30.9,39,30.13,10.0,WNW,15.0,26.5,N/A,,Clear,300,2012-12-21 14:53:00
10:53 AM,59.0,28.9,32,30.12,10.0,NW,21.9,27.6,N/A,,Clear,310,2012-12-21 15:53:00
11:53 AM,61.0,28.9,30,30.11,10.0,NW,19.6,28.8,N/A,,Clear,310,2012-12-21 16:53:00
12:53 PM,63.0,26.1,25,30.08,10.0,NW,16.1,26.5,N/A,,Clear,310,2012-12-21 17:53:00
1:53 PM,64.0,23.0,21,30.06,10.0,WNW,18.4,31.1,N/A,,Clear,300,2012-12-21 18:53:00
2:53 PM,64.9,23.0,20,30.06,10.0,WNW,12.7,25.3,N/A,,Clear,290,2012-12-21 19:53:00
3:53 PM,64.9,26.1,23,30.06,10.0,West,19.6,23.0,N/A,,Clear,280,2012-12-21 20:53:00
4:53 PM,62.1,34.0,35,30.07,10.0,West,15.0,-,N/A,,Clear,280,2012-12-21 21:53:00
5:53 PM,55.9,33.1,42,30.09,10.0,WNW,9.2,-,N/A,,Clear,290,2012-12-21 22:53:00
6:53 PM,51.1,36.0,56,30.12,10.0,WNW,4.6,-,N/A,,Clear,300,2012-12-21 23:53:00
7:53 PM,50.0,35.1,57,30.14,10.0,WNW,9.2,-,N/A,,Clear,290,2012-12-22 00:53:00
8:53 PM,50.0,35.1,57,30.16,10.0,NW,11.5,-,N/A,,Clear,310,2012-12-22 01:53:00
9:53 PM,48.0,36.0,63,30.18,10.0,WNW,10.4,-,N/A,,Clear,290,2012-12-22 02:53:00
10:53 PM,46.9,34.0,61,30.19,10.0,WNW,12.7,-,N/A,,Clear,300,2012-12-22 03:53:00
11:53 PM,46.0,33.1,61,30.19,10.0,WNW,10.4,-,N/A,,Clear,300,2012-12-22 04:53:00